Weather in Novopokrovka

Russia / Kemerovo Oblast     55°57′15″N   88°56′53″E
temp.,
°C
wind,
m/s
gust,
m/s
humid.,
%
clouds,
%
prec.,
mm/h
press.,
hPa
HPBL,
m
13 may, thu
thu1301:00+10ese34535 0.0 101470
04:00+9se336017 0.0 101445
07:00+10se35575 0.0 1014141
10:00+17se343717 0.0 1013715
13:00+20ese232964 0.0 10122596
16:00+18w4437100 0.0 10121929
19:00+17sse334481 0.1 1012776
22:00+12sw236396 0.3 101242
14 may, fri
fri1401:00+10s117989 0.6 101216
04:00+9wnw2488100 0.0 101290
07:00+10wnw4882100 0.4 1013449
10:00+11wnw69647 0.6 10131319
13:00+8nw7107383 0.8 10161080
16:00+12nw710305 0.0 10162181
19:00+11nw593573 0.0 10172040
22:00+7w3944100 0.0 1020263
15 may, sat
sat1501:00+7wsw494898 0.0 1020260
04:00+7wsw51049100 0.0 1019932
07:00+8wsw7166299 0.0 1018634
10:00+13wsw9155110 0.0 1016983
13:00+17wsw10144546 0.0 10151328
16:00+17wsw101546100 0.0 10151191
19:00+16sw9175185 0.0 1013954
22:00+13w81584100 3.7 1014746
16 may, sun
sun1601:00+13sw71773100 7.4 1013776
04:00+13wsw8177681 0.1 1012624
07:00+12wsw61379100 0.1 1012615
10:00+15w6969100 0.1 1012832
13:00+15w5876100 0.2 1012751
16:00+9ne5896100 3.5 1013247
19:00+9nne4587100 5.1 1015621
22:00+9n2482100 0.1 1017301
17 may, mon
mon1701:00+7wnw118344 0.1 101810
04:00+6n1189100 0.0 101810
07:00+8s118083 0.0 1019129
10:00+13sw225977 0.0 1018917
13:00+16sw4548100 0.0 10151295
16:00+18wsw7115399 0.0 10111191
19:00+19wsw8166159 0.1 10091113
22:00+18wsw7196635 0.2 1006658